Date,TemperatureHighF,TemperatureAvgF,TemperatureLowF,DewpointHighF,DewpointAvgF,DewpointLowF,HumidityHigh,HumidityAvg,HumidityLow,PressureMaxIn,PressureMinIn,WindSpeedMaxMPH,WindSpeedAvgMPH,GustSpeedMaxMPH,PrecipitationSumIn
2013-1-1,30.6,18.8,5.2,19.0,10.8,-0.5,84,71,54,30.19,30.09,11,3,11,0.01
2013-1-2,32.4,21.2,11.0,12.8,8.3,4.0,77,58,40,30.19,30.11,14,5,14,0.00
2013-1-3,28.1,21.1,15.8,9.7,6.7,3.0,66,54,43,30.23,30.15,19,7,19,0.00
2013-1-4,35.1,16.3,0.9,14.2,3.4,-7.2,74,58,36,30.25,30.18,8,2,8,0.00
2013-1-5,42.7,18.1,1.6,17.4,4.8,-5.9,74,58,29,30.31,30.22,9,1,9,0.00
2013-1-6,44.1,22.6,8.5,20.7,9.3,0.4,75,59,33,30.27,29.99,18,2,18,0.00
2013-1-7,37.4,24.4,10.1,17.7,10.8,2.4,77,57,41,30.05,29.97,13,4,13,0.00
2013-1-8,46.1,30.8,8.3,20.2,12.6,-1.0,69,49,29,30.26,30.04,14,4,14,0.00
2013-1-9,46.1,33.0,21.2,25.7,20.1,13.6,73,60,42,30.33,30.12,13,3,13,0.00
2013-1-10,42.3,33.7,21.1,25.7,20.6,13.7,82,59,45,30.12,29.71,24,7,24,0.00
2013-1-11,26.3,17.9,3.2,20.9,4.5,-7.2,81,57,32,29.91,29.74,20,5,20,0.06
2013-1-12,26.6,10.9,-3.1,8.8,-1.5,-10.9,73,58,39,29.95,29.87,14,2,14,0.02
2013-1-13,26.5,13.7,0.4,8.4,-0.2,-9.3,67,55,36,29.96,29.88,18,4,18,0.00
2013-1-14,20.7,13.0,8.8,4.8,1.7,-5.6,75,61,45,30.08,29.90,15,6,15,0.00
2013-1-16,30.2,24.7,20.7,12.9,10.8,9.4,61,55,48,30.34,30.31,10,4,10,0.00
2013-1-17,37.8,24.9,13.1,18.4,11.8,4.4,73,58,44,30.39,30.31,14,3,14,0.00
2013-1-18,40.7,22.4,6.8,22.2,10.6,-0.6,76,61,43,30.34,30.26,9,2,9,0.00
2013-1-19,44.3,23.4,6.1,22.9,11.1,-0.9,80,61,35,30.37,30.29,10,2,10,0.02
2013-1-20,44.8,22.4,4.3,23.2,10.3,-3.0,77,61,39,30.32,30.22,9,2,10,0.00
2013-1-21,46.8,25.6,8.5,16.8,9.5,1.9,79,54,27,30.31,30.24,12,3,12,0.00
2013-1-22,51.1,28.1,10.3,21.9,12.7,3.0,76,56,28,30.34,30.29,8,2,8,0.00
2013-1-23,54.7,33.4,15.1,27.3,19.6,8.6,78,60,29,30.36,30.28,9,1,9,0.04
2013-1-24,49.5,40.6,33.8,36.0,31.2,25.0,87,70,53,30.31,30.24,14,3,16,0.03
2013-1-25,53.5,42.5,37.8,44.1,37.2,33.3,90,82,63,30.29,30.16,9,2,9,0.33
2013-1-26,43.9,40.3,37.6,41.2,37.7,34.2,92,90,87,30.17,29.93,14,3,14,1.23
2013-1-27,45.0,39.4,34.9,41.1,36.5,30.3,93,89,83,30.03,29.92,18,5,18,0.31
2013-1-28,34.9,30.0,20.3,31.5,24.3,14.2,90,80,59,29.93,29.83,24,6,24,0.13
2013-1-29,30.4,22.2,7.7,20.5,13.3,2.5,82,69,52,30.12,29.88,23,6,23,0.05
2013-1-30,45.7,28.0,10.3,27.7,17.0,4.0,79,64,46,30.24,30.11,10,2,10,0.05
2013-1-31,48.2,30.7,16.2,30.1,21.0,12.1,88,69,43,30.27,30.23,14,2,14,0.00
2013-2-1,54.0,32.6,16.7,28.8,20.6,11.9,86,65,31,30.32,30.22,9,2,9,0.00
2013-2-2,52.2,34.3,21.2,30.5,22.6,16.3,87,65,40,30.37,30.29,11,2,11,0.00
2013-2-3,47.3,36.4,29.0,33.1,28.0,22.2,82,72,54,30.29,30.10,12,2,12,0.00
2013-2-4,50.8,35.0,22.7,32.2,24.2,17.4,89,67,40,30.16,30.11,12,3,12,0.00
2013-2-5,24.8,24.2,23.4,17.8,17.5,16.9,76,75,74,30.14,30.13,2,1,2,0.00
2013-2-6,51.5,38.4,29.9,31.8,27.6,21.8,81,66,42,30.12,30.00,12,4,18,0.00
2013-2-7,52.4,35.0,21.6,33.0,23.6,17.1,87,66,38,30.17,30.01,10,2,11,0.02
2013-2-8,44.5,35.7,28.8,31.2,24.6,15.3,81,65,47,30.01,29.77,20,7,24,0.00
2013-2-9,30.6,25.8,21.8,23.4,19.8,15.9,87,78,61,29.91,29.71,20,7,22,0.09
2013-2-10,31.3,24.8,14.9,25.3,19.6,9.7,86,81,75,29.94,29.85,19,6,19,0.01
2013-2-11,32.0,13.8,-2.5,22.8,7.1,-8.6,82,74,59,30.07,29.93,10,2,10,0.01
2013-2-12,36.0,15.2,-5.9,20.2,4.7,-12.0,90,65,42,30.18,30.07,10,2,10,0.04
2013-2-13,42.7,24.1,5.9,22.7,11.8,-0.4,82,61,41,30.19,30.15,12,3,12,0.00
2013-2-14,43.6,28.2,11.7,24.6,15.9,6.1,83,62,41,30.26,30.13,16,3,16,0.00
2013-2-15,49.1,33.3,20.2,22.9,14.0,7.9,76,49,21,30.37,30.25,15,4,15,0.00
2013-2-16,54.2,33.1,14.8,18.6,12.5,6.6,74,47,20,30.37,30.15,10,2,10,0.00
2013-2-17,51.7,36.3,18.5,20.2,14.3,10.4,74,44,22,30.15,29.90,24,5,24,0.00
2013-2-18,52.9,35.0,20.7,23.7,15.3,10.1,68,47,22,30.11,29.99,13,3,13,0.00
2013-2-19,46.8,33.7,19.8,21.3,16.0,11.5,73,50,30,30.03,29.69,21,5,21,0.00
2013-2-20,35.8,28.3,20.7,26.1,20.9,15.1,84,74,60,29.81,29.63,16,5,16,0.11
2013-2-21,35.3,27.6,20.3,26.7,21.6,14.9,85,78,66,29.95,29.80,17,6,17,0.09
2013-2-22,39.4,23.7,4.5,19.5,11.2,-1.2,83,61,35,30.10,29.93,12,3,12,0.03
2013-2-23,43.4,29.5,15.5,25.8,17.6,7.6,74,62,46,30.09,29.83,21,5,21,0.00
2013-2-24,33.5,26.2,18.4,18.6,10.6,5.3,78,53,33,30.04,29.84,20,6,20,0.00
2013-2-25,50.4,32.1,13.9,19.7,11.5,4.2,69,44,24,30.12,29.99,12,4,14,0.00
2013-2-26,41.8,31.5,20.2,13.9,7.0,0.1,54,37,22,30.13,29.95,23,5,23,0.00
2013-2-27,40.9,28.3,18.2,10.2,3.0,-2.2,52,35,20,30.24,30.12,15,4,15,0.00
2013-2-28,47.9,32.3,16.9,8.4,2.6,-4.2,51,31,12,30.36,30.23,15,4,15,0.00
2013-3-1,56.5,38.1,18.4,24.5,17.4,6.9,68,46,27,30.39,30.32,14,4,14,0.00
2013-3-2,63.9,41.3,21.2,29.5,21.3,14.1,79,49,23,30.39,30.21,13,2,13,0.00
2013-3-3,58.9,44.4,32.9,27.0,22.6,17.0,63,44,20,30.22,29.99,24,6,24,0.00
2013-3-4,58.0,43.4,28.6,30.0,23.3,17.3,62,46,24,30.18,29.95,16,5,16,0.00
2013-3-5,59.8,38.6,21.2,28.6,20.7,14.0,80,52,27,30.23,30.10,12,2,12,0.00
2013-3-6,58.0,44.9,35.3,30.7,25.5,21.5,65,48,30,30.11,30.00,20,6,20,0.00
2013-3-7,58.1,41.7,25.6,30.1,23.1,17.1,76,50,29,30.04,29.96,18,5,20,0.00
2013-3-8,41.4,32.7,23.8,34.5,26.3,18.7,87,78,61,29.96,29.75,11,2,11,0.36
2013-3-9,37.3,30.1,24.7,30.9,25.5,20.3,88,83,76,30.07,29.82,17,4,17,0.10
2013-3-10,42.5,34.1,30.1,27.7,25.6,22.0,83,72,46,30.19,30.05,18,7,18,0.52
2013-3-11,41.4,32.4,27.2,25.5,21.6,19.3,72,64,53,30.19,30.15,4,1,4,0.00
2013-3-12,58.7,39.3,21.1,31.1,23.2,15.4,82,56,28,30.27,30.16,14,3,14,0.00
2013-3-13,63.4,42.8,24.1,33.4,24.8,18.7,85,54,25,30.34,30.27,11,2,11,0.00
2013-3-14,69.3,46.4,27.5,32.8,24.7,19.5,84,49,17,30.36,30.27,11,3,11,0.00
2013-3-15,73.3,50.4,28.4,35.3,27.1,20.6,78,46,17,30.28,30.10,22,4,22,0.01
2013-3-16,67.3,49.6,35.1,34.9,28.4,23.8,72,47,22,30.11,29.95,21,4,21,0.00
2013-3-17,63.7,46.6,32.0,31.5,19.0,4.9,71,40,8,30.04,29.94,22,6,22,0.00
2013-3-18,64.3,46.5,26.3,24.4,15.5,8.7,54,32,15,30.11,30.01,20,4,20,0.00
2013-3-19,60.5,44.4,31.1,29.3,22.0,16.4,67,44,23,30.21,30.05,13,2,13,0.00
2013-3-20,61.9,45.2,27.5,32.3,25.4,16.6,73,48,30,30.21,29.97,24,5,24,0.00
2013-3-21,65.2,50.5,33.1,33.6,19.0,5.6,62,34,13,29.98,29.88,18,6,18,0.00
2013-3-22,62.1,42.4,23.6,24.9,9.3,-10.1,61,30,9,29.91,29.82,21,4,21,0.01
2013-3-23,50.0,37.0,22.1,8.1,-0.3,-10.1,39,22,9,30.07,29.90,20,5,20,0.00
2013-3-24,52.6,28.9,15.8,12.1,4.3,-0.1,57,38,16,30.08,30.00,16,2,16,0.01
2013-3-25,60.7,39.9,19.1,17.7,10.8,3.9,58,33,17,30.13,30.05,13,3,13,0.00
2013-3-26,63.0,47.5,34.7,23.3,18.2,14.6,47,32,19,30.10,29.99,21,5,21,0.00
2013-3-27,66.6,46.0,25.2,27.0,18.7,12.7,64,37,18,30.10,30.01,19,4,19,0.00
2013-3-28,65.2,49.9,35.8,28.1,22.3,16.7,48,35,24,30.17,30.08,20,5,20,0.00
2013-3-29,71.1,51.4,32.9,41.5,26.5,18.9,62,40,19,30.22,30.16,14,3,15,0.02
2013-3-30,67.0,51.2,34.9,34.4,26.7,22.0,63,41,25,30.21,30.13,13,4,13,0.00
2013-3-31,71.6,52.1,36.0,34.9,27.3,19.6,64,41,24,30.15,30.06,18,4,18,0.00
2013-4-1,63.5,48.2,34.0,31.1,22.4,9.6,67,40,18,30.07,29.98,22,6,22,0.00
2013-4-2,58.7,43.5,26.5,31.5,22.2,12.4,63,45,25,30.08,29.98,17,4,17,0.00
2013-4-3,34.2,32.2,30.4,25.0,22.3,21.1,70,67,63,30.09,30.08,5,2,5,0.00
2013-4-4,59.0,53.4,49.3,24.2,23.2,22.2,36,31,25,30.24,30.21,9,2,9,0.00
2013-4-5,69.1,54.9,41.8,33.3,24.2,15.0,43,31,16,30.21,30.09,22,6,22,0.00
2013-4-6,73.3,55.0,40.0,33.6,28.2,22.6,55,38,21,30.18,30.11,16,5,16,0.00
2013-4-7,70.6,59.6,40.7,31.8,26.1,22.4,48,29,19,30.12,29.97,13,6,13,0.00
2013-4-8,51.3,41.8,34.4,36.5,30.3,22.4,79,64,48,29.97,29.61,30,8,30,0.08
2013-4-9,47.3,37.5,30.8,32.0,24.8,16.8,82,62,37,30.02,29.68,20,4,20,0.08
2013-4-10,50.4,39.6,29.0,26.3,18.6,10.4,80,47,21,30.15,30.02,20,6,20,0.00
2013-4-11,67.1,46.3,27.9,28.9,21.8,14.8,67,41,19,30.14,30.03,16,4,16,0.00
2013-4-12,67.3,48.5,29.2,31.9,24.0,15.4,62,40,21,30.11,30.03,15,3,15,0.00
2013-4-13,69.3,52.5,31.5,30.3,24.1,20.2,65,37,19,30.09,29.90,26,7,26,0.00
2013-4-14,68.0,54.4,42.8,32.4,27.5,22.5,47,36,25,29.98,29.87,21,8,21,0.00
2013-4-15,62.6,51.2,41.4,33.3,30.3,26.6,59,46,31,29.91,29.85,27,11,27,0.00
2013-4-16,47.0,41.3,34.2,21.0,18.7,16.1,48,41,32,29.93,29.89,19,5,19,0.00
2013-4-17,49.0,37.9,28.4,21.0,14.6,7.5,63,41,20,30.16,29.91,19,5,19,0.00
2013-4-18,49.3,34.9,20.9,9.6,4.4,-2.9,55,31,14,30.31,30.15,18,5,18,0.00
2013-4-19,67.0,41.9,14.2,16.7,6.2,-3.7,50,26,11,30.32,30.14,14,3,14,0.00
2013-4-20,67.7,50.7,30.4,22.1,12.4,7.6,42,24,10,30.22,30.13,19,5,19,0.00
2013-4-21,74.2,51.9,25.2,26.7,16.5,7.8,54,29,13,30.27,30.17,18,4,18,0.00
2013-4-23,59.9,43.0,28.3,6.4,2.1,0.0,30,19,12,30.18,30.13,10,2,10,0.00
2013-4-24,72.5,49.9,21.1,23.7,15.8,0.3,44,28,15,30.16,30.12,13,3,13,0.00
2013-4-25,68.2,51.1,30.4,27.6,20.5,14.0,59,33,15,30.23,30.10,20,4,20,0.00
2013-4-26,73.1,55.3,36.4,27.5,21.6,14.3,60,31,13,30.34,30.22,24,4,24,0.00
2013-4-27,75.6,53.2,28.6,24.3,13.1,2.8,57,25,10,30.34,30.24,24,3,24,0.00
2013-4-28,79.4,54.4,28.4,25.2,12.9,3.5,48,22,8,30.26,30.13,12,2,12,0.00
2013-4-29,85.7,60.0,33.1,30.2,18.5,10.1,48,24,10,30.16,30.03,25,3,25,0.00
2013-4-30,79.2,62.7,45.5,27.6,17.8,12.0,32,19,10,30.07,30.01,26,7,26,0.00
2013-5-1,76.1,58.6,37.4,26.1,12.9,-4.9,35,18,6,30.38,30.07,20,5,20,0.00
2013-5-2,61.2,47.9,35.5,12.7,6.0,-4.4,32,19,7,30.47,30.38,23,8,23,0.00
2013-5-3,75.1,51.3,25.0,16.4,7.2,-1.1,36,18,7,30.39,30.12,13,3,13,0.00
2013-5-4,77.4,55.8,29.3,21.6,12.0,6.1,41,20,8,30.13,30.01,16,4,16,0.00
2013-5-5,70.2,53.9,39.1,25.9,18.6,10.9,43,26,17,30.14,30.06,17,4,17,0.00
2013-5-6,65.9,49.4,34.9,45.0,33.9,17.6,76,57,33,30.15,30.08,19,4,19,0.06
2013-5-7,43.9,43.9,43.7,35.2,35.0,34.8,71,71,70,30.12,30.12,4,3,5,0.00
2013-5-8,60.7,47.1,30.2,40.3,31.5,25.4,86,58,32,30.19,30.11,9,2,11,0.09
2013-5-9,65.7,48.0,33.8,39.2,32.1,25.7,76,56,30,30.24,30.16,13,2,13,0.01
2013-5-10,70.6,51.9,29.5,40.5,30.5,23.3,86,49,22,30.35,30.21,18,3,18,0.00
2013-5-11,71.1,54.1,34.0,39.9,30.3,23.8,79,44,22,30.40,30.33,16,4,16,0.00
2013-5-12,76.9,57.6,33.3,36.9,24.9,19.6,70,34,15,30.40,30.30,18,3,18,0.00
2013-5-13,85.7,61.4,35.6,35.9,26.5,19.5,59,31,13,30.37,30.26,14,2,14,0.00
2013-5-14,85.5,64.0,50.6,36.9,31.3,25.7,40,31,16,30.27,30.19,20,6,20,0.00
2013-5-15,79.9,63.9,44.3,31.5,23.0,11.3,38,24,10,30.23,30.13,23,7,23,0.00
2013-5-16,79.6,62.3,44.8,31.6,20.0,11.9,30,21,11,30.19,30.09,25,6,25,0.00
2013-5-17,74.2,59.3,45.5,32.1,24.6,18.5,37,27,18,30.16,30.10,21,5,21,0.00
2013-5-18,74.0,57.3,34.9,37.4,27.9,19.4,61,34,21,30.16,30.11,17,4,17,0.00
2013-5-19,76.0,58.8,41.2,37.5,23.8,13.4,57,30,12,30.17,30.05,23,6,23,0.00
2013-5-20,71.6,54.4,37.4,27.4,21.0,13.5,51,30,15,30.21,30.14,13,3,13,0.00
2013-5-21,80.5,58.1,31.9,37.0,20.9,13.0,58,28,10,30.20,30.09,16,3,16,0.00
2013-5-22,78.5,59.7,33.5,30.3,21.5,13.1,47,26,13,30.11,30.02,19,5,25,0.00
2013-5-23,78.7,63.3,47.2,31.8,21.5,16.9,37,22,11,30.13,30.03,24,6,24,0.00
2013-5-24,79.6,62.5,37.4,34.9,19.4,13.7,44,22,10,30.21,30.11,20,5,20,0.00
2013-5-25,83.2,65.7,52.9,27.6,19.0,14.3,28,18,8,30.21,30.15,20,6,20,0.00
2013-5-26,77.8,63.6,49.1,24.3,16.8,12.3,29,18,10,30.21,30.15,19,6,19,0.00
2013-5-27,78.8,61.6,43.6,27.3,21.2,13.5,35,23,13,30.18,30.07,16,4,16,0.00
2013-5-28,78.5,59.2,37.1,33.2,26.8,17.2,47,31,16,30.09,29.94,20,5,20,0.00
2013-5-29,77.4,61.5,38.7,38.5,28.6,22.3,62,32,17,30.07,29.96,24,5,24,0.00
2013-5-30,82.8,64.5,39.1,43.4,33.2,21.5,58,33,19,30.17,30.06,18,4,18,0.00
2013-5-31,86.6,67.0,41.2,47.3,31.6,21.8,68,32,13,30.24,30.16,15,3,15,0.00
2013-6-1,84.2,67.9,50.0,22.5,16.2,10.5,33,14,7,30.28,30.17,14,4,14,0.00
2013-6-2,90.4,68.3,43.4,35.7,25.3,12.4,39,22,12,30.21,30.09,25,4,25,0.00
2013-6-3,86.8,67.6,42.5,39.3,26.1,21.8,55,25,11,30.19,30.11,20,4,20,0.00
2013-6-4,87.7,70.8,52.9,32.2,24.7,19.2,33,20,10,30.22,30.16,20,5,20,0.00
2013-6-5,89.8,71.0,53.1,35.9,26.0,19.0,30,20,11,30.23,30.16,11,3,11,0.00
2013-6-6,95.2,71.7,45.9,42.2,26.1,20.1,43,21,8,30.21,30.15,14,2,14,0.00
2013-6-7,93.1,72.2,42.3,33.8,24.0,14.3,47,19,6,30.22,30.12,14,3,14,0.00
2013-6-8,96.5,74.7,45.7,36.2,25.0,15.8,40,18,7,30.24,30.13,20,4,20,0.00
2013-6-9,99.7,79.6,55.8,39.6,27.7,19.9,37,17,7,30.26,30.19,16,4,16,0.00
2013-6-10,92.7,75.4,54.7,28.5,21.8,9.6,25,13,5,30.26,30.17,23,6,23,0.00
2013-6-11,91.4,71.8,46.4,40.1,23.5,10.2,44,18,7,30.29,30.20,18,4,18,0.00
2013-6-12,95.8,76.5,54.5,36.7,27.2,22.0,36,18,10,30.31,30.25,19,3,19,0.00
2013-6-13,91.3,72.7,54.5,41.2,31.9,23.8,34,24,15,30.29,30.20,19,5,19,0.00
2013-6-14,90.7,72.3,50.6,35.5,29.9,24.3,39,23,12,30.23,30.15,18,4,18,0.00
2013-6-15,88.9,68.0,45.5,48.0,35.0,24.8,50,31,19,30.27,30.18,20,4,20,0.00
2013-6-16,90.4,69.1,42.8,44.4,29.8,21.0,54,27,12,30.30,30.23,19,3,19,0.00
2013-6-17,93.6,69.4,41.0,41.7,23.8,11.5,54,22,10,30.28,30.20,16,4,16,0.00
2013-6-18,89.6,71.9,52.6,27.6,18.9,9.9,21,14,8,30.22,30.13,15,5,21,0.00
2013-6-19,86.8,70.2,50.2,25.2,18.7,11.4,23,15,8,30.13,30.08,20,6,20,0.00
2013-6-20,86.8,70.5,52.6,26.6,21.3,16.3,28,17,8,30.16,30.10,17,5,17,0.00
2013-6-21,87.1,71.4,55.1,33.0,23.1,13.9,33,18,8,30.20,30.14,20,5,20,0.00
2013-6-22,86.9,69.2,52.7,31.8,24.8,18.1,30,20,13,30.20,30.13,18,4,18,0.04
2013-6-23,86.2,69.8,51.5,33.4,21.2,13.1,31,18,7,30.16,30.08,18,5,18,0.06
2013-6-24,83.5,65.8,47.9,37.3,24.2,12.8,37,22,12,30.18,30.08,21,4,21,0.00
2013-6-25,88.0,72.5,55.6,36.8,29.2,24.9,34,22,13,30.27,30.16,14,5,17,0.00
2013-6-26,94.9,75.9,54.9,31.1,25.3,18.5,29,17,8,30.35,30.27,16,4,16,0.00
2013-6-27,101.2,80.2,53.8,46.9,31.0,23.0,40,19,8,30.40,30.31,16,3,16,0.00
2013-6-28,103.9,81.5,53.8,45.2,33.2,27.6,43,20,8,30.36,30.26,18,4,18,0.00
2013-6-29,99.4,80.1,58.0,45.1,35.4,30.2,40,22,12,30.32,30.22,16,3,16,0.00
2013-6-30,100.3,79.8,61.4,45.6,38.7,33.5,37,25,12,30.28,30.19,16,3,16,0.00
2013-7-1,97.2,81.3,65.7,52.2,42.4,32.1,50,28,12,30.29,30.22,14,4,14,0.00
2013-7-2,92.5,71.5,62.6,53.4,48.3,39.3,69,46,25,30.33,30.24,17,5,17,0.04
2013-7-3,92.2,74.9,62.6,56.0,48.3,44.2,58,41,22,30.26,30.16,16,5,16,0.00
2013-7-4,91.3,74.4,64.3,58.9,48.9,42.0,80,43,24,30.22,30.13,16,4,16,0.19
2013-7-5,87.1,74.3,63.9,57.7,51.4,47.0,63,46,30,30.24,30.14,19,4,19,0.00
2013-7-6,90.7,69.1,56.0,58.7,53.2,44.8,81,60,25,30.24,30.18,12,3,12,0.09
2013-7-7,90.0,71.6,49.9,60.1,49.8,42.5,86,52,24,30.26,30.17,15,2,15,0.00
2013-7-8,95.2,76.4,56.3,53.3,45.1,40.7,61,37,17,30.32,30.25,10,2,10,0.00
2013-7-9,68.0,66.1,63.9,43.5,42.6,40.9,45,43,40,30.32,30.31,7,3,7,0.00
2013-7-10,92.2,73.1,59.8,56.8,48.6,38.8,75,46,18,30.32,30.23,9,3,14,0.02
2013-7-11,84.8,71.4,62.8,60.1,56.1,53.8,76,60,37,30.28,30.20,16,4,16,0.00
2013-7-12,85.0,67.3,57.1,58.1,54.5,50.8,87,67,33,30.28,30.20,14,3,14,0.18
2013-7-13,86.9,69.8,52.7,60.2,53.3,49.2,91,60,31,30.30,30.23,15,2,15,0.00
2013-7-14,90.9,70.8,56.5,56.2,52.0,48.6,77,54,25,30.31,30.20,13,2,13,0.00
2013-7-15,81.7,68.5,57.4,64.5,54.3,49.1,79,62,39,30.26,30.16,10,0,10,0.12
2013-7-16,76.3,63.2,58.5,61.8,57.1,54.2,91,81,51,30.31,30.21,0,0,0,1.10
2013-7-17,80.5,64.9,52.7,65.1,57.0,49.6,90,77,46,30.35,30.29,0,0,0,0.39
2013-7-18,85.3,69.7,54.0,62.7,55.1,49.9,89,64,33,30.33,30.23,0,0,0,0.00
2013-7-19,88.6,70.2,59.4,59.5,55.3,46.3,83,63,30,30.28,30.18,0,0,0,0.61
2013-7-20,85.1,66.9,58.7,61.6,57.0,54.2,90,73,37,30.25,30.17,10,1,10,0.62
2013-7-21,83.3,68.4,58.3,64.9,58.8,54.7,91,74,43,30.29,30.14,12,3,12,0.11
2013-7-22,79.6,66.1,57.4,63.6,58.3,53.6,89,77,51,30.29,30.21,10,3,10,0.03
2013-7-23,83.9,66.6,58.1,63.4,58.3,54.0,89,77,44,30.29,30.22,11,3,11,0.74
2013-7-24,85.9,69.2,54.0,61.8,56.6,50.9,89,67,39,30.27,30.19,10,2,10,0.10
2013-7-25,86.8,65.8,60.3,66.0,59.0,51.3,90,80,46,30.34,30.23,10,1,10,0.78
2013-7-26,82.3,67.8,58.3,62.2,58.1,53.9,90,73,46,30.42,30.31,0,0,0,0.36
2013-7-27,83.3,66.6,57.1,63.2,56.7,53.4,90,73,43,30.35,30.21,0,0,0,0.17
2013-7-28,82.3,65.4,55.8,62.5,55.2,51.3,88,72,39,30.21,30.16,0,0,0,0.20
2013-7-29,82.4,68.0,53.5,60.8,53.2,48.3,91,63,35,30.35,30.20,0,0,0,0.06
2013-7-30,86.0,71.1,56.2,53.7,48.3,41.1,73,48,23,30.42,30.34,0,0,0,0.00
2013-7-31,88.6,72.1,54.5,56.8,50.8,46.6,76,51,25,30.40,30.31,0,0,0,0.00
2013-8-1,84.8,71.6,61.2,57.3,54.3,51.5,74,56,36,30.33,30.23,0,0,0,0.00
2013-8-2,86.4,69.4,58.3,61.4,54.6,49.3,75,61,33,30.29,30.23,0,0,0,0.01
2013-8-3,88.0,70.3,56.9,58.2,53.6,49.1,79,58,32,30.31,30.26,0,0,0,0.01
2013-8-4,83.5,68.3,60.8,57.5,53.2,49.3,76,60,33,30.33,30.27,0,0,0,0.05
2013-8-5,80.1,67.2,57.1,52.8,49.2,44.6,69,54,33,30.31,30.23,0,0,0,0.01
2013-8-6,65.3,62.3,59.8,55.3,50.5,46.0,78,66,53,30.31,30.23,0,0,0,0.09
2013-8-7,78.5,65.0,56.7,53.4,50.0,47.4,76,60,35,30.28,30.23,0,0,0,0.00
2013-8-8,84.2,68.2,53.5,47.1,40.6,33.0,67,40,19,30.26,30.19,0,0,0,0.00
2013-8-9,84.6,67.0,46.8,43.3,34.8,25.3,62,34,15,30.26,30.21,0,0,0,0.00
2013-8-10,80.5,64.7,46.4,47.2,38.3,32.6,70,42,19,30.33,30.25,0,0,0,0.00
2013-8-11,80.6,64.4,48.2,52.2,46.8,40.6,78,55,32,30.33,30.24,0,0,0,0.02
2013-8-12,87.3,67.3,48.1,56.4,44.6,36.4,86,50,19,30.30,30.23,0,0,0,0.03
2013-8-13,88.4,69.4,47.2,50.4,38.7,28.5,69,38,13,30.33,30.25,0,0,0,0.00
2013-8-14,87.3,71.4,50.6,48.9,42.0,34.5,58,36,23,30.32,30.24,0,0,0,0.00
2013-8-15,80.3,67.9,63.7,57.8,49.2,42.0,77,52,37,30.36,30.26,0,0,0,0.10
2013-8-16,87.1,69.8,54.4,62.4,51.5,45.3,73,54,26,30.34,30.29,0,0,0,0.16
2013-8-17,86.2,67.6,58.7,58.2,51.6,46.0,82,59,31,30.37,30.28,0,0,0,0.18
2013-8-18,83.2,67.3,57.1,57.5,52.4,49.1,78,60,37,30.33,30.26,11,1,11,0.01
2013-8-19,82.3,67.9,57.2,59.0,50.6,46.3,67,55,34,30.32,30.24,9,1,9,0.02
2013-8-20,87.8,69.9,49.5,54.6,47.7,42.6,79,49,24,30.28,30.20,8,1,8,0.00
2013-8-21,77.8,67.9,60.5,58.0,52.4,47.8,79,58,40,30.32,30.23,13,1,13,0.04
2013-8-22,81.4,67.9,55.4,55.7,52.0,48.6,79,58,35,30.32,30.21,0,0,0,0.01
2013-8-23,81.0,67.1,51.8,55.5,50.3,45.2,82,57,33,30.26,30.17,0,0,0,0.00
2013-8-24,76.0,62.7,52.6,55.5,50.9,44.6,80,66,44,30.29,30.19,0,0,0,0.02
2013-8-25,67.0,60.3,57.2,58.4,54.5,50.8,90,82,72,30.34,30.25,0,0,0,0.67
2013-8-26,69.1,61.0,56.9,65.1,57.8,54.3,92,89,77,30.33,30.24,0,0,0,2.09
2013-8-27,73.6,61.1,52.6,61.7,55.2,50.2,93,81,62,30.29,30.22,0,0,0,0.04
2013-8-28,86.4,66.3,49.3,60.4,52.1,45.5,89,64,32,30.30,30.23,0,0,0,0.00
2013-8-29,83.2,68.2,57.6,62.6,56.2,50.9,85,67,43,30.36,30.29,0,0,0,0.03
2013-8-30,77.4,65.0,57.6,59.6,55.6,53.7,87,73,47,30.36,30.27,0,0,0,0.06
2013-8-31,76.9,62.5,58.7,59.1,53.6,49.7,78,73,52,30.29,30.21,0,0,0,0.44
2013-9-1,85.3,67.6,56.3,58.0,52.5,47.3,76,60,36,30.26,30.19,0,0,0,0.00
2013-9-2,87.8,68.3,51.5,57.4,49.4,42.0,73,53,30,30.30,30.21,0,0,0,0.00
2013-9-3,83.7,68.6,51.7,55.8,49.2,41.9,72,52,34,30.31,30.24,0,0,0,0.00
2013-9-4,84.8,70.8,58.5,55.1,49.4,44.4,62,48,26,30.34,30.26,0,0,0,0.00
2013-9-5,84.6,67.9,52.2,53.2,46.9,40.8,67,49,28,30.35,30.27,0,0,0,0.00
2013-9-6,83.0,67.2,53.3,53.4,47.4,41.6,67,51,30,30.33,30.22,0,0,0,0.00
2013-9-7,80.6,64.2,56.0,53.8,49.1,44.2,73,59,38,30.28,30.21,0,0,0,0.60
2013-9-8,66.6,58.9,54.4,55.4,50.0,45.9,77,72,63,30.23,30.12,0,0,0,0.23
2013-9-9,58.7,56.2,48.8,51.5,48.5,40.6,78,76,73,30.15,30.05,0,0,0,1.22
2013-9-10,63.7,56.1,48.4,50.0,45.0,40.4,75,67,58,30.16,30.07,0,0,0,0.26
2013-9-11,70.2,58.4,49.9,51.0,43.9,36.1,65,59,49,30.23,30.15,0,0,0,0.08
2013-9-12,75.8,59.3,43.0,50.8,41.4,30.2,61,52,34,30.24,30.15,0,0,0,0.00
2013-9-13,78.3,60.6,45.2,51.8,42.5,31.7,60,52,35,30.18,30.06,0,0,0,0.00
2013-9-14,77.6,60.1,49.7,53.9,42.8,35.5,59,53,37,30.13,30.06,0,0,0,0.35
2013-9-15,79.6,61.0,45.7,52.6,42.2,32.0,60,51,32,30.21,30.11,0,0,0,0.00
2013-9-16,80.3,61.5,45.0,54.1,43.1,30.7,58,52,34,30.25,30.17,0,0,0,0.00
2013-9-17,78.1,63.6,49.0,55.2,44.7,34.8,58,51,37,30.20,30.07,0,0,0,0.00
2013-9-18,77.6,64.5,54.7,47.7,39.1,33.4,58,42,25,30.10,30.05,0,0,0,0.00
2013-9-19,80.3,61.9,42.8,47.3,39.0,29.9,60,45,26,30.16,30.09,0,0,0,0.00
2013-9-20,79.6,59.8,41.4,47.8,38.1,28.2,59,47,27,30.19,30.13,0,0,0,0.00
2013-9-21,76.0,58.0,44.1,50.8,40.3,30.2,59,53,38,30.17,30.09,0,0,0,0.69
2013-10-18,51.7,34.5,26.6,16.5,12.5,10.5,52,41,24,30.08,30.04,0,0,0,0.00
2013-10-19,69.8,41.0,19.6,28.2,15.3,9.3,65,40,16,30.09,30.01,0,0,0,0.00
2013-10-20,70.9,45.4,21.6,30.2,14.6,8.6,65,35,8,30.02,29.90,0,0,0,0.00
2013-10-21,67.0,43.2,24.1,27.6,15.5,10.2,60,36,16,30.09,29.96,0,0,0,0.00
2013-10-22,68.2,42.2,22.0,30.8,17.3,11.4,66,41,18,30.12,30.05,0,0,0,0.00
2013-10-23,70.9,45.2,23.0,33.7,19.6,13.3,66,41,17,30.06,29.99,0,0,0,0.00
2013-10-24,69.5,48.1,35.1,31.9,24.3,18.5,59,42,23,30.05,29.98,0,0,0,0.00
2013-10-25,66.6,44.1,27.2,41.0,27.9,16.6,66,54,33,30.12,30.04,0,0,0,0.00
2013-10-26,66.4,44.1,26.3,38.4,24.3,16.4,68,49,25,30.17,30.09,0,0,0,0.00
2013-10-27,68.8,47.5,26.8,39.4,24.2,16.7,66,44,21,30.09,29.77,0,0,0,0.00
2013-10-28,57.2,49.2,43.4,33.0,27.6,23.3,61,44,34,29.79,29.73,0,0,0,0.00
2013-10-29,46.1,41.2,34.4,33.6,29.4,23.4,66,63,59,29.84,29.75,0,0,0,0.02
2013-10-30,52.2,37.7,29.7,31.6,23.3,18.4,68,57,33,29.94,29.82,0,0,0,0.04
2013-10-31,60.5,37.2,18.2,31.1,18.4,9.0,68,50,24,30.04,29.95,0,0,0,0.00
2013-11-1,62.1,37.2,18.2,31.6,17.3,8.6,67,48,21,30.12,30.03,0,0,0,0.00
2013-11-2,65.3,41.5,18.9,32.2,17.8,9.6,67,43,16,30.11,29.88,0,0,0,0.00
2013-11-3,60.8,45.2,27.7,28.2,21.4,14.1,62,40,27,29.88,29.74,0,0,0,0.00
2013-11-4,54.9,41.1,22.7,30.1,23.3,12.2,67,50,34,29.82,29.74,0,0,0,0.00
2013-11-5,51.1,36.6,24.8,22.3,18.5,13.3,66,50,27,29.99,29.81,0,0,0,0.00
2013-11-6,53.5,39.5,20.0,9.4,1.7,-3.1,38,22,12,30.23,30.17,0,0,0,0.00
2013-11-7,63.7,35.7,16.7,19.7,8.0,-1.9,53,34,17,30.22,30.07,0,0,0,0.00
2013-11-8,66.1,44.9,22.3,24.3,15.2,6.0,53,32,18,30.07,29.97,0,0,0,0.00
2013-11-9,69.3,45.3,27.9,31.2,19.9,11.3,61,39,17,30.11,30.02,0,0,0,0.00
2013-11-10,63.9,39.7,22.3,30.7,18.9,11.9,66,46,24,30.15,30.08,0,0,0,0.00
2013-11-11,63.0,38.6,20.7,32.6,18.0,11.4,67,49,21,30.17,30.11,0,0,0,0.00
2013-11-23,38.5,33.7,31.5,24.5,20.1,17.7,60,57,56,29.93,29.87,0,0,0,2.22
2013-11-24,37.1,31.7,24.1,24.6,18.4,12.2,62,58,56,29.97,29.89,0,0,0,1.96
2013-11-25,45.4,30.5,16.0,29.9,16.8,6.0,70,57,38,30.11,29.94,0,0,0,0.36
2013-11-26,47.0,35.9,25.0,28.3,21.5,15.2,67,56,43,30.17,30.09,0,0,0,0.05
2013-11-27,42.3,30.8,21.2,29.5,19.1,10.5,67,62,55,30.12,29.96,0,0,0,0.00
2013-11-28,48.6,30.7,17.8,31.7,18.9,7.7,67,62,50,30.04,29.93,0,0,0,0.00
2013-11-29,49.9,30.7,18.4,35.2,19.6,8.5,66,63,56,30.10,30.02,0,0,0,0.01
2013-11-30,34.7,28.5,20.7,22.7,15.8,10.5,65,59,56,30.12,30.04,0,0,0,0.00
2013-12-1,36.2,29.7,24.5,24.7,16.5,12.2,63,57,55,30.16,30.08,0,0,0,0.00
2013-12-2,61.2,38.2,19.8,39.7,18.9,8.8,67,50,17,30.09,29.79,0,0,0,0.00
2013-12-3,48.1,40.2,34.2,28.2,23.9,18.7,64,52,42,29.79,29.56,0,0,0,0.00
2013-12-4,39.6,30.1,13.0,27.8,18.8,4.1,70,63,56,29.72,29.49,0,0,0,0.05
2013-12-5,14.8,13.7,12.8,6.1,5.1,4.1,68,68,68,29.72,29.70,0,0,0,0.00
2013-12-6,33.5,19.3,7.2,11.0,3.0,-2.7,64,50,30,29.87,29.76,0,0,0,0.04
2013-12-7,27.0,22.9,15.8,16.4,10.7,3.8,66,59,52,29.81,29.62,0,0,0,0.00
2013-12-8,32.8,25.6,20.5,18.4,14.7,11.4,70,63,54,29.81,29.64,0,0,0,0.02
2013-12-9,24.1,10.2,-10.8,12.2,-2.6,-17.7,74,57,39,30.12,29.80,0,0,0,0.01
2013-12-10,34.9,9.0,-11.9,10.8,-5.8,-19.6,70,53,33,30.12,29.99,0,0,0,0.03
2013-12-11,35.3,13.3,-9.0,13.9,-1.4,-17.5,70,54,32,30.17,30.02,0,0,0,0.01
2013-12-12,40.3,20.3,4.9,18.1,6.9,-3.1,71,58,39,30.15,29.94,0,0,0,0.00
2013-12-13,48.1,34.5,12.4,29.7,17.2,1.4,68,50,32,30.00,29.89,0,0,0,0.00
2013-12-14,41.2,30.6,20.3,18.0,14.1,7.1,60,50,37,30.19,29.99,0,0,0,0.00
2013-12-15,49.7,35.4,21.8,20.9,14.4,7.5,63,43,31,30.20,30.14,0,0,0,0.00
2013-12-16,55.8,32.7,18.0,26.9,15.6,9.6,69,53,25,30.20,30.14,0,0,0,0.00
2013-12-17,51.8,32.2,15.5,31.6,16.7,7.1,70,56,29,30.22,30.08,0,0,0,0.00
2013-12-18,56.9,39.4,23.2,22.1,18.0,14.2,70,46,21,30.08,29.74,0,0,0,0.00
2013-12-19,44.6,37.3,31.1,25.8,22.0,16.8,65,54,41,29.74,29.58,0,0,0,0.00
2013-12-20,37.4,29.9,14.0,27.6,18.6,5.9,71,63,56,29.63,29.57,0,0,0,0.25
2013-12-21,40.0,28.7,13.1,26.8,18.1,4.7,75,64,54,29.80,29.56,0,0,0,0.00
2013-12-22,42.5,23.1,4.9,22.7,10.7,-2.2,72,60,39,30.08,29.79,0,0,0,0.00
2013-12-23,42.5,28.1,14.0,23.8,15.2,5.0,69,59,46,30.19,30.07,0,0,0,0.00
2013-12-24,55.4,31.3,10.8,30.1,17.1,3.2,84,58,32,30.15,30.01,0,0,0,0.00
2013-12-25,43.6,34.0,25.7,20.3,9.8,-4.1,63,38,20,30.17,30.10,0,0,0,0.00
2013-12-26,29.2,28.9,28.8,6.3,6.1,5.8,38,38,37,30.12,30.12,0,0,0,0.00
2013-12-31,58.3,44.0,30.6,27.0,21.8,17.1,64,43,24,30.18,30.08,0,0,0,0.00
2014-1-1,51.1,36.9,22.1,27.3,17.4,10.8,67,46,32,30.19,30.07,0,0,0,0.00
2014-1-2,52.6,32.3,15.8,23.0,14.0,7.0,69,51,20,30.21,30.10,0,0,0,0.00